Location: Wells
(51.2093°N, 2.6446°W)
Time: 08:39:33
(UTC+01:00)

SO-50 - Pass Details

Date: 22 March 2026
Orbit: 567 x 673 km, 64.6° (Epoch: 17 April)

Event Time Altitude Azimuth Distance (km) Brightness Sun altitude
Rises 23:43:56 0° 318° (NW) 3,031 ? -37.4°
Reaches altitude 10° 23:46:17 10° 320° (NW) 2,115 ? -37.4°
Enters shadow 23:47:11 16° 322° (NW) 1,768 ? -37.5°
